Regional Weather Roundup
Issued by NWS Kansas City/Pleasant Hill, MO

Home | Current Version | Previous Version | Graphics & Text | Print | Product List | Glossary Off
Versions: 1 2 3 4 5 6 7 8 9 10 11 12 13 14 15 16 17 18 19 20 21 22 23 24 25 26 27 28 29 30 31 32 33 34 35 36 37 38 39 40 41 42 43 44 45 46 47 48 49 50

000
ASUS43 KEAX 280410
RWREAX

WEATHER ROUNDUP FOR EASTERN KANSAS AND NORTHWEST MISSOURI
NATIONAL WEATHER SERVICE KANSAS CITY/PLEASANT HILL MO
1100 PM CDT WED JUL 27 2016

KSZ040-057-103>105-MOZ028-029-037-043-280500-
...KANSAS CITY METROPOLITAN AREA...

CITY           SKY/WX    TMP DP  RH WIND       PRES   REMARKS
K.C. INTL      PTCLDY    80  71  74 CALM      29.97R
K.C. DOWNTOWN  CLEAR     80  71  74 N3        29.95R
LEES SUMMIT    MOCLDY    79  72  79 NE6       29.97R
OLATHE - IXD   CLEAR     78  72  81 NE5       29.97R
OLATHE - OJC   CLEAR     79  70  74 NE5       29.97R
LAWRENCE       CLEAR     71  70  96 NW3       29.96R

$$

MOZ001>008-011>017-020>025-030>033-038>040-044>046-053-054-280500-
...NORTHERN AND CENTRAL MISSOURI...

CITY           SKY/WX    TMP DP  RH WIND       PRES   REMARKS
ST. JOSEPH     CLEAR     75  72  90 CALM      29.96R
MOSBY          PTCLDY    73  72  94 CALM      29.96R
WHITEMAN AFB   PTCLDY    77  77 100 N3        29.94R
CLINTON        PTCLDY    75  73  94 CALM      29.95R
SEDALIA        PTCLDY    79  74  84 CALM      29.96R
WARSAW         NOT AVBL
CHILLICOTHE      N/A     76  72  87 CALM      29.96R
KIRKSVILLE     PTCLDY    73  69  87 CALM      29.96R

$$

MOZ041-047>049-056>058-063>065-088>090-097-280500-
...EASTERN AND SOUTHERN MISSOURI...

CITY           SKY/WX    TMP DP  RH WIND       PRES   REMARKS
ST. LOUIS INTL CLOUDY    84  73  69 S6        29.94R HX  90
SPIRIT OF STL  CLOUDY    78  76  93 CALM      29.92S
COLUMBIA       CLEAR     79  74  84 N6        29.95R
JEFFERSON CITY CLOUDY    81  76  84 CALM      29.93R
ROLLA          MOCLDY    73  69  87 SW5       29.95R
OSAGE BEACH    PTCLDY    77  74  90 CALM      29.96R
SPRINGFIELD    CLOUDY    75  70  84 SE5       29.96R
BRANSON        CLOUDY    73  73 100 CALM      29.97R
JOPLIN         CLEAR     75  71  87 CALM      29.95S
WEST PLAINS    CLOUDY    72  69  90 NW5       29.99R

$$

IAZ060-094-KSZ022-034>040-054-083-096-NEZ052-066-093-280500-
...KANSAS...SOUTHEAST NEBRASKA AND IOWA...

CITY           SKY/WX    TMP DP  RH WIND       PRES   REMARKS
TOPEKA           N/A     77  72  84 CALM      29.96R
MANHATTAN      CLEAR     76  72  87 CALM      29.98R
EMPORIA        PTCLDY    77  74  90 CALM      29.98R
CHANUTE        CLOUDY    80  76  87 SE7       29.95R
WICHITA        PTCLDY    83  71  67 E6        29.98R
OMAHA          PTCLDY    76  70  82 W3        29.98R
LINCOLN        CLEAR     76  68  76 N5        30.01R
FALLS CITY     CLEAR     75  71  87 NW5       29.97R
LAMONI         PTCLDY    74  70  87 N3        29.97R
DES MOINES     PTCLDY    78  69  73 S3        29.95S

$$




USA.gov is the U.S. government's official web portal to all federal, state and local government web resources and services.